Meteopurmerend
purmerend
Purmerend - Baaienwijk



My webcam  My webcam


waarschuwing voor Onweer Meer informatie blitzortung!


Regen radar Meer informatie rain snow radar


Bezoek onze andere website:

CandyAppleRed WebdesignWebdesign Purmerend Candy Apple Red

MeteopurmerendBlog

Template documentation
and downloads



Onweer van: 26-07-2021 13:00 tot: 21:00 waarschuwing voor: Onweer niveau: Geel info button
Enkele onweersbuien, lokaal met hagel en veel neerslag in korte tijd.Kans op blikseminslag, hagel en veel neerslag in korte tijd.Verkeer en buitenactiviteiten kunnen hinder ondervinden.Mijd open water en open gebied, schuil niet onder bomen.Volg weerberichten en waarschuwingen.

15 daagse weersverwachting Skövde (SE)

  • Overzicht
  • Per uur
  • 15 dagen
  • Extra
  • Vergelijk
  • Kaarten
  • Dagkaart
  • Meer »
  • Info
  • Statistieken
  • Directe link
    Temp 6h Neerslag Wind  
 04:47     21:37    Daglengte: 16:50 Vandaag
20:00
22°
0.9 mm
2
 04:49     21:35    Daglengte: 16:46 Morgen
02:00
18°
 
2
08:00
18°
 
2
14:00
22°
6.8 mm
4
warningclass
20:00
20°
23.7 mm
2
warningclass
 04:51     21:33    Daglengte: 16:42 Woensdag 28 Jul
02:00
17°
15.6 mm
2
08:00
18°
 
3
14:00
22°
40.3 mm
4
20:00
19°
41.2 mm
3
 04:53     21:31    Daglengte: 16:38 Donderdag 29 Jul
02:00
15°
 
3
08:00
17°
26.7 mm
5
Locatie info
Region: Västra Götalands län
Latitude: 58.3914°N
Longitude: 13.8472°E
152 masl
Postcode: 541 30
Temp/Neerslag /Baro Onweer/Dauwpunt
    Temp Baro 1h Neerslag Dauwpunt Wind UV Bewolking  
 04:47     21:37    Daglengte: 16:50 Vandaag
15:00
24°
1014.7 hPa
11%
21.1°
4
Windvlaag: 2.9 m/s
86%
16:00
24°
1014.5 hPa
25%
20.0°
3
Windvlaag: 5.4 m/s
83%
17:00
24°
1014.1 hPa 0.3 mm
60%
16.8°
3
Windvlaag: 6.3 m/s
78% warningclass
18:00
23°
1014.2 hPa 0.6 mm
82%
16.4°
3
Windvlaag: 6.7 m/s
72%
19:00
22°
1014.1 hPa
75%
16.2°
2
Windvlaag: 5 m/s
69%
20:00
22°
1013.8 hPa
61%
19.1°
2
Windvlaag: 1.1 m/s
57%
21:00
21°
1013.8 hPa
14%
19.3°
1
Windvlaag: 1.8 m/s
58%
22:00
20°
1013.9 hPa
14%
19.2°
2
Windvlaag: 1.3 m/s
50%
23:00
19°
1014.0 hPa
14%
18.4°
2
Windvlaag: 1.6 m/s
54%
 04:49     21:35    Daglengte: 16:46 Morgen
00:00
19°
1014.0 hPa
16%
18.3°
2
Windvlaag: 2.8 m/s
52%
01:00
18°
1013.7 hPa
20%
18.1°
2
Windvlaag: 3 m/s
59%
02:00
18°
1013.5 hPa
14%
18.0°
2
Windvlaag: 2.3 m/s
69%
03:00
18°
1013.2 hPa
14%
17.8°
1
Windvlaag: 2.9 m/s
72%
04:00
18°
1012.8 hPa
14%
17.6°
1
Windvlaag: 0 m/s
77%
05:00
17°
1012.3 hPa
14%
17.3°
2
Windvlaag: -0.8 m/s
86%
06:00
18°
1011.7 hPa
14%
17.5°
2
Windvlaag: -2.6 m/s
79%
07:00
18°
1011.4 hPa
14%
17.5°
2
Windvlaag: -3.1 m/s
85%
08:00
18°
1011.3 hPa
70%
17.7°
2
Windvlaag: -1.8 m/s
79%
09:00
19°
1011.2 hPa
21%
18.7°
3
Windvlaag: 0.3 m/s
86%
10:00
20°
1010.8 hPa
59%
19.1°
3
Windvlaag: 1.5 m/s
86%
11:00
21°
1010.5 hPa
53%
20.3°
3
Windvlaag: 3 m/s
72%
12:00
22°
1010.2 hPa
61%
21.4°
3
Windvlaag: 5.4 m/s
85%
13:00
22°
1010.0 hPa 6.8 mm
82%
20.5°
3
Windvlaag: 5.3 m/s
70% warningclass
14:00
22°
1009.5 hPa
82%
20.1°
4
Windvlaag: 2.3 m/s
74%
15:00
22°
1009.1 hPa
82%
18.4°
3
Windvlaag: 1.7 m/s
77%
16:00
23°
1008.8 hPa 7.4 mm
82%
16.8°
4
Windvlaag: 1.1 m/s
82% warningclass
17:00
22°
1008.6 hPa 8.1 mm
81%
15.1°
3
Windvlaag: 1 m/s
78% warningclass
18:00
21°
1008.3 hPa
82%
15.0°
3
Windvlaag: 1.8 m/s
50% warningclass
19:00
20°
1008.1 hPa 8.2 mm
82%
19.2°
3
Windvlaag: 0.7 m/s
82% warningclass
20:00
20°
1007.9 hPa
82%
19.4°
2
Windvlaag: 0.5 m/s
66%
21:00
19°
1008.0 hPa 7.5 mm
82%
19.1°
2
Windvlaag: 1.3 m/s
81% warningclass
22:00
19°
1008.0 hPa 8.1 mm
81%
18.8°
1
Windvlaag: 1.7 m/s
48%
23:00
18°
1008.0 hPa
81%
18.1°
1
Windvlaag: 1.1 m/s
29%
 04:51     21:33    Daglengte: 16:42 Woensdag 28 Jul
00:00
18°
1008.0 hPa
78%
17.7°
1
Windvlaag: 2.9 m/s
28%
01:00
18°
1007.8 hPa
76%
17.5°
2
Windvlaag: 3.6 m/s
15%
02:00
17°
1007.8 hPa
22%
17.3°
2
Windvlaag: 3.6 m/s
15%
03:00
17°
1007.4 hPa
20%
16.8°
2
Windvlaag: 3.2 m/s
41%
04:00
16°
1007.1 hPa
14%
16.3°
1
Windvlaag: 2.9 m/s
44%
05:00
16°
1006.9 hPa
14%
15.9°
2
Windvlaag: 3.1 m/s
60%
06:00
16°
1006.9 hPa
14%
16.1°
2
Windvlaag: 4.3 m/s
22%
07:00
17°
1006.8 hPa
14%
16.8°
3
Windvlaag: 5.6 m/s
23%
08:00
18°
1006.7 hPa
14%
17.0°
3
Windvlaag: 6.4 m/s
40%
09:00
18°
1006.5 hPa
14%
17.4°
3
Windvlaag: 6.5 m/s
23%
10:00
19°
1006.5 hPa
14%
16.9°
3
Windvlaag: 6.6 m/s
56%
11:00
20°
1005.8 hPa 13.4 mm
22%
14.6°
4
Windvlaag: 6.6 m/s
68%
12:00
21°
1005.6 hPa
27%
14.6°
4
Windvlaag: 5.9 m/s
54%
13:00
21°
1005.2 hPa 13.3 mm
21%
14.9°
4
Windvlaag: 5.7 m/s
67%
14:00
22°
1004.7 hPa 13.6 mm
21%
14.4°
4
Windvlaag: 5.1 m/s
64%
15:00
22°
1004.5 hPa 14.1 mm
35%
13.3°
4
Windvlaag: 2.9 m/s
63%
16:00
21°
1004.4 hPa 13.7 mm
93%
12.5°
4
Windvlaag: 3.6 m/s
79%
17:00
20°
1004.4 hPa 13.4 mm
96%
11.7°
4
Windvlaag: 3.7 m/s
67%
18:00
20°
1004.0 hPa
92%
12.6°
4
Windvlaag: 3.3 m/s
66%
19:00
20°
1003.6 hPa
38%
12.5°
4
Windvlaag: 3.1 m/s
61%
20:00
19°
1003.4 hPa
79%
13.0°
3
Windvlaag: 3.4 m/s
74%
21:00
18°
1003.3 hPa
72%
14.6°
2
Windvlaag: 3.5 m/s
74%
22:00
17°
1003.1 hPa
24%
14.0°
3
Windvlaag: 4 m/s
52%
23:00
16°
1003.1 hPa
21%
13.7°
3
Windvlaag: 4.2 m/s
56%
 04:53     21:31    Daglengte: 16:38 Donderdag 29 Jul
00:00
15°
1002.8 hPa
21%
13.9°
3
Windvlaag: 4.5 m/s
70%
01:00
15°
1002.8 hPa
21%
14.3°
3
Windvlaag: 4.9 m/s
56%
02:00
15°
1002.4 hPa
21%
14.5°
3
Windvlaag: 5.4 m/s
56%
03:00
15°
1001.9 hPa
22%
14.5°
3
Windvlaag: 5.8 m/s
61%
04:00
15°
1001.2 hPa
24%
14.4°
3
Windvlaag: 6.1 m/s
70%
05:00
15°
1001.1 hPa
26%
14.4°
3
Windvlaag: 6.7 m/s
68%
06:00
16°
1000.8 hPa
35%
14.4°
3
Windvlaag: 6.3 m/s
75%
07:00
16°
1000.6 hPa 13.3 mm
97%
13.1°
4
Windvlaag: 7.3 m/s
72%
08:00
17°
1000.5 hPa 13.4 mm
100%
12.8°
5
Windvlaag: 8 m/s
68%
09:00
17°
997.6 hPa 13.3 mm
91%
12.2°
5
Windvlaag: 9 m/s
98%
10:00
18°
997.3 hPa
37%
12.4°
6
Windvlaag: 7.9 m/s
72%
11:00
18°
997.2 hPa
32%
15.7°
6
Windvlaag: 7.7 m/s
83%
12:00
18°
996.8 hPa
79%
13.8°
6
Windvlaag: 9.8 m/s
59%
13:00
19°
996.5 hPa
44%
13.1°
6
Windvlaag: 9.5 m/s
65%
14:00
19°
996.2 hPa
92%
12.9°
6
Windvlaag: 9.5 m/s
59%
Temp/Neerslag /Baro Onweer/Dauwpunt
    Temp Baro Neerslag Dauwpunt Wind Bewolking  
 04:47     21:37    Daglengte: 16:50 Vandaag
17:00
24°
1014.1 hPa 0.3 mm 16.8°
3
78% warningclass
20:00
22°
1013.8 hPa 0.6 mm 19.1°
2
57%
23:00
19°
1014.0 hPa   18.4°
2
54%
 04:49     21:35    Daglengte: 16:46 Morgen
02:00
18°
1013.5 hPa   18.0°
2
69%
05:00
17°
1012.3 hPa   17.3°
2
86%
08:00
18°
1011.3 hPa   17.7°
2
79%
11:00
21°
1010.5 hPa   20.3°
3
72%
14:00
22°
1009.5 hPa 6.8 mm 20.1°
4
74% warningclass
17:00
22°
1008.6 hPa 15.5 mm 15.1°
3
78% warningclass
20:00
20°
1007.9 hPa 8.2 mm 19.4°
2
66% warningclass
23:00
18°
1008.0 hPa 15.6 mm 18.1°
1
29%
 04:51     21:33    Daglengte: 16:42 Woensdag 28 Jul
02:00
17°
1007.8 hPa   17.3°
2
15%
05:00
16°
1006.9 hPa   15.9°
2
60%
08:00
18°
1006.7 hPa   17.0°
3
40%
11:00
20°
1005.8 hPa 13.4 mm 14.6°
4
68%
14:00
22°
1004.7 hPa 26.9 mm 14.4°
4
64%
17:00
20°
1004.4 hPa 41.2 mm 11.7°
4
67%
20:00
19°
1003.4 hPa   13.0°
3
74%
23:00
16°
1003.1 hPa   13.7°
3
56%
 04:53     21:31    Daglengte: 16:38 Donderdag 29 Jul
02:00
15°
1002.4 hPa   14.5°
3
56%
05:00
15°
1001.1 hPa   14.4°
3
68%
08:00
17°
1000.5 hPa 26.7 mm 12.8°
5
68%
11:00
18°
997.2 hPa 13.3 mm 15.7°
6
83%
14:00
19°
996.2 hPa   12.9°
6
59%
17:00
15°
997.3 hPa 24.9 mm 12.9°
4
1%
20:00
13°
995.8 hPa 25.6 mm 11.8°
3
1%
23:00
10°
995.2 hPa 26.1 mm 10.1°
2
1%
 04:55     21:29    Daglengte: 16:34 Vrijdag 30 Jul
02:00
11°
994.5 hPa 26.2 mm 10.0°
4
1%
05:00
13°
992.3 hPa 32.4 mm 12.6°
6
1%
08:00
15°
992.6 hPa 32.5 mm 13.0°
6
1%
11:00
19°
992.7 hPa 32.6 mm 12.1°
5
1%
14:00
21°
993.1 hPa 32.8 mm 10.3°
6
1%
17:00
20°
994.2 hPa 33.3 mm 13.1°
5
1%
20:00
16°
995.6 hPa 33.8 mm 13.7°
5
1%
23:00
14°
997.0 hPa 33.8 mm 13.2°
4
1%
 04:57     21:26    Daglengte: 16:29 Zaterdag 31 Jul
02:00
14°
998.1 hPa 33.8 mm 13.4°
4
1%
05:00
13°
998.9 hPa 33.8 mm 11.3°
4
0%
08:00
15°
999.4 hPa 33.8 mm 10.7°
4
1%
11:00
19°
999.7 hPa 33.8 mm 9.3°
4
1%
14:00
21°
999.4 hPa 33.8 mm 8.6°
5
1%
17:00
22°
999.2 hPa 33.8 mm 8.1°
5
1%
20:00
18°
999.1 hPa 33.8 mm 10.3°
3
0%
23:00
13°
999.1 hPa 33.8 mm 11.7°
2
0%
 04:59     21:24    Daglengte: 16:25 Zondag 01 Aug
02:00
13°
998.0 hPa 34.3 mm 12.3°
1
1%
05:00
13°
997.3 hPa 36.5 mm 12.7°
1
1%
08:00
14°
997.2 hPa 36.7 mm 12.3°
3
1%
11:00
17°
997.6 hPa 36.8 mm 8.7°
4
1%
14:00
18°
997.9 hPa 36.8 mm 8.2°
4
1%
17:00
18°
998.2 hPa 37.3 mm 7.7°
5
1%
20:00
14°
998.6 hPa 37.8 mm 10.0°
4
1%
23:00
11°
998.6 hPa 37.9 mm 9.4°
3
0%
 05:01     21:22    Daglengte: 16:21 Maandag 02 Aug
02:00
12°
997.4 hPa 37.9 mm 8.2°
5
0%
05:00
13°
996.6 hPa 37.9 mm 9.8°
5
1%
08:00
14°
996.5 hPa 37.9 mm 11.5°
5
1%
11:00
16°
997.3 hPa 38.4 mm 10.2°
4
1%
14:00
18°
998.0 hPa 78.8 mm 9.0°
3
1%
20:00
13°
999.4 hPa 87.8 mm 10.3°
3
1%
 05:03     21:19    Daglengte: 16:16 Dinsdag 03 Aug
02:00
10°
Voelt als: 7.5°
1001.4 hPa 90.6 mm 8.4°
5
0%
08:00
13°
1002.7 hPa 90.6 mm 6.6°
6
0%
14:00
18°
1003.9 hPa 90.9 mm 5.4°
6
0%
20:00
14°
1005.5 hPa 91.7 mm 7.8°
5
0%
 05:06     21:17    Daglengte: 16:11 Woensdag 04 Aug
02:00
11°
1006.9 hPa 92.1 mm 10.2°
4
0%
08:00
14°
1006.4 hPa 92.6 mm 12.3°
4
1%
14:00
15°
1003.6 hPa 95.3 mm 14.4°
4
1%
20:00
15°
1001.4 hPa 110.3 mm 14.0°
4
1%
 05:08     21:15    Daglengte: 16:07 Donderdag 05 Aug
02:00
13°
999.5 hPa 111.6 mm 12.1°
4
1%
08:00
14°
997.2 hPa 111.7 mm 12.2°
5
0%
14:00
18°
1007.4 hPa 1.0 mm 10.6°
1
65%
20:00
15°
1006.8 hPa 2.0 mm 11.7°
1
71%
 05:10     21:12    Daglengte: 16:02 Vrijdag 06 Aug
02:00
12°
1007.0 hPa 1.7 mm 10.4°
1
72%
08:00
14°
1006.5 hPa 0.8 mm 11.2°
1
62%
14:00
19°
1005.8 hPa 0.9 mm 11.4°
1
68%
20:00
16°
1005.2 hPa 2.0 mm 11.7°
1
56%
 05:12     21:10    Daglengte: 15:58 Zaterdag 07 Aug
02:00
12°
1006.0 hPa 0.5 mm 9.9°
2
59%
08:00
14°
1006.1 hPa 0.4 mm 10.8°
2
57%
14:00
19°
1005.9 hPa 0.5 mm 11.1°
2
55%
20:00
16°
1005.8 hPa 1.2 mm 11.2°
2
60%
 05:14     21:07    Daglengte: 15:53 Zondag 08 Aug
02:00
12°
1006.8 hPa 0.2 mm 10.5°
2
55%
08:00
14°
1007.0 hPa 0.2 mm 11.2°
2
56%
14:00
19°
1007.2 hPa 0.7 mm 11.5°
2
62%
20:00
16°
1007.6 hPa 1.5 mm 11.9°
1
67%
 05:16     21:05    Daglengte: 15:49 Maandag 09 Aug
02:00
13°
1008.5 hPa 0.3 mm 10.7°
1
65%
08:00
14°
1008.7 hPa 1.3 mm 11.4°
1
70%
14:00
19°
1009.3 hPa 1.4 mm 11.4°
2
69%
20:00
16°
1009.5 hPa 1.3 mm 11.4°
2
71%
 05:19     21:02    Daglengte: 15:43 Dinsdag 10 Aug
02:00
13°
1010.5 hPa 0.4 mm 10.6°
2
60%
08:00
14°
1010.6 hPa 0.7 mm 11.2°
2
65%
14:00
20°
1010.3 hPa 0.8 mm 11.4°
2
63%
  CAPE Lifted Index Hail Supercell Tornado SRH 3km CL BTM PRES CL TOP PRES Swiss DWD icon SMHI TS
 04:47     21:37    Daglengte: 16:50 Vandaag
15:00 1051 J/kg -3.9 K 0 % 0 % 0 % 0 m²/s² 0 0 -3.18 3
16:00 953 J/kg -3.7 K 0 % 0 % 0 % 0 m²/s² 0 0 -2.38 3
17:00 958 J/kg -3.7 K 0 % 0 % 0 % 0 m²/s² 0 0 -3.28 3
18:00 130 J/kg -3.6 K 0 % 0 % 0 % 0 m²/s² 0 0 -2.76 80
19:00 60 J/kg -3.7 K 0 % 0 % 0 % 0 m²/s² 0 0 -3.58 80
20:00 8 J/kg -2.6 K 0 % 0 % 0 % 0 m²/s² 0 0 -1.64 3
21:00 92 J/kg -2.5 K 0 % 0 % 0 % 0 m²/s² 0 0 -0.91 3
22:00 98 J/kg -1.7 K 0 % 0 % 0 % 0 m²/s² 0 0 0.4 3
23:00 110 J/kg -1.2 K 0 % 0 % 0 % 0 m²/s² 0 0 1.02 3
 04:49     21:35    Daglengte: 16:46 Morgen
00:00 147 J/kg -0.8 K 0 % 0 % 0 % 0 m²/s² 0 0 1.24 3
01:00 188 J/kg -0.9 K 0 % 0 % 0 % 0 m²/s² 0 0 -0.72 3
02:00 211 J/kg -0.9 K 0 % 0 % 0 % 0 m²/s² 0 0 -0.69 3
03:00 181 J/kg -1.1 K 0 % 0 % 0 % 0 m²/s² 0 0 -0.89 3
04:00 68 J/kg -0.4 K 0 % 0 % 0 % 0 m²/s² 0 0 -0.37 3
05:00 51 J/kg -0.5 K 0 % 0 % 0 % 0 m²/s² 0 0 -0.23 3
06:00 0 J/kg -0.1 K 0 % 0 % 0 % 0 m²/s² 0 0 -0.07 3
07:00 0 J/kg -0.1 K 0 % 0 % 0 % 0 m²/s² 0 0 0.02 3
08:00 293 J/kg -2.7 K 0 % 0 % 0 % 0 m²/s² 0 0 -1.83 3
09:00 655 J/kg -2.6 K 0 % 0 % 0 % 0 m²/s² 0 0 -1.04 3
10:00 1168 J/kg -3.8 K 0 % 0 % 0 % 0 m²/s² 0 0 -2.12 3
11:00 1660 J/kg -5.1 K 0 % 0 % 0 % 0 m²/s² 0 0 -3.6 3
12:00 1995 J/kg -5.6 K 0 % 0 % 0 % 0 m²/s² 0 0 -4.28 3
13:00 2042 J/kg -5.7 K 0 % 0 % 0 % 0 m²/s² 0 0 -4.47 3
14:00 1870 J/kg -5.2 K 0 % 0 % 0 % 0 m²/s² 0 0 -3.52 3
15:00 1893 J/kg -5.5 K 0 % 0 % 0 % 0 m²/s² 0 0 -4 3
16:00 1596 J/kg -4.5 K 0 % 0 % 0 % 0 m²/s² 0 0 -3.27 80
17:00 1320 J/kg -4.1 K 0 % 0 % 0 % 0 m²/s² 0 0 -3.2 95
18:00 898 J/kg -3.3 K 0 % 0 % 0 % 0 m²/s² 0 0 -2.22 95
19:00 1250 J/kg -4.3 K 0 % 0 % 0 % 0 m²/s² 0 0 -3.64 95
20:00 1113 J/kg -3.9 K 0 % 0 % 0 % 0 m²/s² 0 0 -2.88 80
21:00 878 J/kg -2.7 K 0 % 0 % 0 % 0 m²/s² 0 0 -2.49 61
22:00 288 J/kg -0.9 K 0 % 0 % 0 % 0 m²/s² 0 0 -0.42 80
23:00 100 J/kg 0.1 K 0 % 0 % 0 % 0 m²/s² 0 0 0.37 80
 04:51     21:33    Daglengte: 16:42 Woensdag 28 Jul
00:00 112 J/kg -0.5 K 0 % 0 % 0 % 0 m²/s² 0 0 -0.41 3
01:00 124 J/kg -1.6 K 0 % 0 % 0 % 0 m²/s² 0 0 -1.15 2
02:00 439 J/kg -2.3 K 0 % 0 % 0 % 0 m²/s² 0 0 -1.4 2
03:00 458 J/kg -2.5 K 0 % 0 % 0 % 0 m²/s² 0 0 -1.24 2
04:00 368 J/kg -1.8 K 0 % 0 % 0 % 0 m²/s² 0 0 -0.54 3
05:00 216 J/kg -1.1 K 0 % 0 % 0 % 0 m²/s² 0 0 0.07 3
06:00 52 J/kg -1.2 K 0 % 0 % 0 % 0 m²/s² 0 0 0.12 2
07:00 62 J/kg -1.6 K 0 % 0 % 0 % 0 m²/s² 0 0 0.23 2
08:00 320 J/kg -1.5 K 0 % 0 % 0 % 0 m²/s² 0 0 0.54 2
09:00 400 J/kg -1.5 K 0 % 0 % 0 % 0 m²/s² 0 0 0.81 2
10:00 194 J/kg -0.6 K 0 % 0 % 0 % 0 m²/s² 0 0 1.62 3
11:00 121 J/kg -0.3 K 0 % 0 % 0 % 0 m²/s² 0 0 1.86 2
12:00 119 J/kg 0.0 K 0 % 0 % 0 % 0 m²/s² 0 0 2.91 2
13:00 109 J/kg -0.1 K 0 % 0 % 0 % 0 m²/s² 0 0 3.5 1
14:00 144 J/kg -0.5 K 0 % 0 % 0 % 0 m²/s² 0 0 3.19 2
15:00 157 J/kg -0.5 K 0 % 0 % 0 % 0 m²/s² 0 0 2.47 2
16:00 179 J/kg -0.9 K 0 % 0 % 0 % 0 m²/s² 0 0 0.51 3
17:00 149 J/kg -0.9 K 0 % 0 % 0 % 0 m²/s² 0 0 -0.24 3
18:00 351 J/kg -1.8 K 0 % 0 % 0 % 0 m²/s² 0 0 -1.29 2
19:00 419 J/kg -2.2 K 0 % 0 % 0 % 0 m²/s² 0 0 -1.69 3
20:00 434 J/kg -2.0 K 0 % 0 % 0 % 0 m²/s² 0 0 -1.43 3
21:00 424 J/kg -1.8 K 0 % 0 % 0 % 0 m²/s² 0 0 -1.23 3
22:00 22 J/kg 0.0 K 0 % 0 % 0 % 0 m²/s² 0 0 0.69 3
23:00 0 J/kg 0.4 K 0 % 0 % 0 % 0 m²/s² 0 0 0.82 2
 04:53     21:31    Daglengte: 16:38 Donderdag 29 Jul
00:00 39 J/kg -0.2 K 0 % 0 % 0 % 0 m²/s² 0 0 0.49 3
01:00 66 J/kg 0.0 K 0 % 0 % 0 % 0 m²/s² 0 0 0.6 3
02:00 77 J/kg 0.1 K 0 % 0 % 0 % 0 m²/s² 0 0 0.52 2
03:00 27 J/kg 0.1 K 0 % 0 % 0 % 0 m²/s² 0 0 1.18 2
04:00 71 J/kg -1.3 K 0 % 0 % 0 % 0 m²/s² 0 0 0.56 3
05:00 179 J/kg -2.3 K 0 % 0 % 0 % 0 m²/s² 0 0 -1.07 3
06:00 333 J/kg -1.8 K 0 % 0 % 0 % 0 m²/s² 0 0 0.96 3
07:00 222 J/kg -1.4 K 0 % 0 % 0 % 0 m²/s² 0 0 -0.08 3
08:00 223 J/kg -1.4 K 0 % 0 % 0 % 0 m²/s² 0 0 0.97 3
09:00 378 J/kg -1.4 K 0 % 0 % 0 % 0 m²/s² 0 0 -0.08 3
10:00 522 J/kg -2.2 K 0 % 0 % 0 % 0 m²/s² 0 0 0.23 3
11:00 655 J/kg -3.2 K 0 % 0 % 0 % 0 m²/s² 0 0 -3.08 3
12:00 692 J/kg -3.3 K 0 % 0 % 0 % 0 m²/s² 0 0 -2.49 3
13:00 588 J/kg -2.9 K 0 % 0 % 0 % 0 m²/s² 0 0 -2.3 3
14:00 417 J/kg -1.0 K 0 % 0 % 0 % 0 m²/s² 0 0 -0.49 3
Temp Baro Wind Neerslag
  EWN Forecast EWN WRFDA DWD ICON FMI HIRLAM MET Norway GFS
 04:47     21:37    Daglengte: 16:50 Vandaag
17:00 24.4° 1014.1 hPa 3.2 m/s 0.3 mm 24.2° 1013.2 hPa 4.2 m/s 0.3 mm 23.8° 1015.0 hPa 3.0 m/s -1.3 mm 26.2° 1013.9 hPa 3.0 m/s 0.0 mm 25.0° 1013.0 hPa 2.8 m/s
20:00 21.6° 1013.8 hPa 1.6 m/s 0.6 mm 18.0° 1013.4 hPa 2.7 m/s 7.9 mm 21.9° 1014.0 hPa 0.5 m/s 0.4 mm 21.9° 1013.7 hPa 1.6 m/s 0.0 mm 16.7° 1014.0 hPa 1.6 m/s
23:00 19.5° 1014.0 hPa 2.0 m/s 0.0 mm 16.3° 1013.6 hPa 3.0 m/s 10.6 mm 20.0° 1014.1 hPa 1.7 m/s 0.0 mm 18.7° 1014.0 hPa 1.8 m/s 0.0 mm 15.6° 1014.7 hPa 1.5 m/s
 04:49     21:35    Daglengte: 16:46 Morgen
02:00 18.2° 1013.5 hPa 1.5 m/s 0.0 mm 17.4° 1012.6 hPa 1.6 m/s 10.7 mm 18.9° 1013.1 hPa 1.2 m/s 0.0 mm 17.0° 1013.6 hPa 1.4 m/s 0.0 mm 15.0° 1013.3 hPa 2.2 m/s
05:00 17.4° 1012.3 hPa 1.7 m/s 0.0 mm 17.6° 1011.4 hPa 4.1 m/s 13.4 mm 17.5° 1012.0 hPa 0.8 m/s 0.0 mm 16.3° 1012.5 hPa 1.4 m/s 0.0 mm 16.1° 1012.0 hPa 1.9 m/s
08:00 17.9° 1011.3 hPa 1.9 m/s 0.0 mm 18.1° 1010.1 hPa 2.0 m/s 57.2 mm 19.8° 1011.5 hPa 1.1 m/s 0.0 mm 17.4° 1011.7 hPa 1.9 m/s 0.0 mm 18.0° 1011.2 hPa 4.0 m/s
11:00 21.2° 1010.5 hPa 2.8 m/s 0.0 mm 22.7° 1008.8 hPa 4.2 m/s 92.2 mm 21.7° 1010.7 hPa 2.2 m/s 0.4 mm 19.3° 1010.7 hPa 2.4 m/s 0.0 mm 18.7° 1010.2 hPa 4.4 m/s
14:00 22.0° 1009.5 hPa 3.6 m/s 6.8 mm 24.5° 1007.2 hPa 4.1 m/s 97.4 mm 21.8° 1010.2 hPa 3.6 m/s 0.4 mm 21.7° 1009.5 hPa 3.3 m/s 0.0 mm 18.2° 1009.8 hPa 4.0 m/s
17:00 21.7° 1008.6 hPa 3.1 m/s 15.5 mm 22.2° 1007.4 hPa 3.2 m/s 101.8 mm 20.2° 1009.3 hPa 2.9 m/s 4.0 mm 25.9° 1008.0 hPa 3.1 m/s 0.0 mm 19.1° 1009.4 hPa 3.5 m/s
20:00 19.8° 1007.9 hPa 2.0 m/s 8.2 mm 20.2° 1006.6 hPa 1.5 m/s 103.4 mm 18.3° 1008.9 hPa 3.1 m/s 7.7 mm 20.9° 1007.6 hPa 1.3 m/s 0.0 mm 18.4° 1008.2 hPa 1.8 m/s
23:00 18.4° 1008.0 hPa 0.9 m/s 15.6 mm 18.3° 1006.6 hPa 0.5 m/s 114.5 mm 17.2° 1008.0 hPa 0.9 m/s 0.5 mm 18.7° 1008.1 hPa 0.9 m/s 0.0 mm 16.6° 1008.6 hPa 0.9 m/s
 04:51     21:33    Daglengte: 16:42 Woensdag 28 Jul
02:00 17.3° 1007.8 hPa 1.8 m/s 0.0 mm 18.0° 1006.2 hPa 1.7 m/s 118.3 mm 16.6° 1007.4 hPa 1.8 m/s 0.2 mm 17.7° 1008.0 hPa 1.0 m/s 0.0 mm 15.1° 1008.3 hPa 1.4 m/s
05:00 16.1° 1006.9 hPa 1.8 m/s 0.0 mm 17.5° 1004.7 hPa 1.3 m/s 118.6 mm 15.8° 1006.8 hPa 2.0 m/s 0.0 mm 15.9° 1007.5 hPa 1.1 m/s 0.0 mm 14.2° 1007.5 hPa 1.8 m/s
08:00 17.6° 1006.7 hPa 3.0 m/s 0.0 mm 18.4° 1004.1 hPa 3.4 m/s 118.6 mm 17.5° 1006.2 hPa 4.1 m/s 0.0 mm 18.0° 1007.3 hPa 1.5 m/s 0.0 mm 17.0° 1007.2 hPa 2.8 m/s
11:00 19.5° 1005.8 hPa 4.5 m/s 13.4 mm 20.7° 1003.6 hPa 4.7 m/s 118.7 mm 19.4° 1005.9 hPa 4.8 m/s 0.0 mm 21.8° 1006.6 hPa 2.8 m/s
14:00 21.9° 1004.7 hPa 3.9 m/s 26.9 mm 22.1° 1003.5 hPa 4.5 m/s 118.7 mm 22.5° 1004.5 hPa 4.1 m/s 0.0 mm 22.8° 1005.7 hPa 4.0 m/s
17:00 20.4° 1004.4 hPa 4.2 m/s 41.2 mm 22.6° 1002.9 hPa 4.8 m/s 118.7 mm 20.4° 1004.2 hPa 4.5 m/s 0.1 mm 20.1° 1005.2 hPa 2.7 m/s
20:00 18.7° 1003.4 hPa 2.9 m/s 0.0 mm 20.8° 1002.1 hPa 3.0 m/s 118.7 mm 18.1° 1003.1 hPa 3.4 m/s 0.0 mm 17.8° 1004.5 hPa 1.9 m/s
23:00 15.5° 1003.1 hPa 2.6 m/s 0.0 mm 15.1° 1002.7 hPa 2.7 m/s 118.7 mm 15.4° 1002.2 hPa 2.9 m/s 0.0 mm 14.7° 1004.5 hPa 2.2 m/s
 04:53     21:31    Daglengte: 16:38 Donderdag 29 Jul
02:00 14.8° 1002.4 hPa 2.6 m/s 0.0 mm 14.1° 1002.6 hPa 2.6 m/s 118.7 mm 14.7° 1000.2 hPa 2.6 m/s 0.0 mm 13.7° 1003.4 hPa 2.4 m/s
05:00 15.0° 1001.1 hPa 2.9 m/s 0.0 mm 14.5° 1001.3 hPa 3.5 m/s 118.7 mm 14.9° 998.2 hPa 2.5 m/s 0.0 mm 13.6° 1002.6 hPa 2.7 m/s
08:00 16.6° 1000.5 hPa 4.6 m/s 26.7 mm 17.6° 1001.0 hPa 4.8 m/s 118.7 mm 15.8° 996.8 hPa 5.0 m/s 0.5 mm 15.8° 1001.3 hPa 3.5 m/s
11:00 17.7° 997.2 hPa 5.7 m/s 13.3 mm 17.1° 1000.7 hPa 4.1 m/s 120.3 mm 17.9° 996.4 hPa 6.2 m/s 0.1 mm 18.4° 1000.0 hPa 4.4 m/s
14:00 19.0° 996.2 hPa 6.2 m/s 0.0 mm 19.0° 999.6 hPa 6.8 m/s 128.6 mm 19.0° 995.3 hPa 6.1 m/s 0.1 mm 13.6° 999.2 hPa 3.1 m/s
17:00 14.9° 997.3 hPa 4.3 m/s 24.9 mm 14.9° 997.3 hPa 4.3 m/s 24.9 mm
20:00 13.2° 995.8 hPa 3.4 m/s 25.6 mm 13.2° 995.8 hPa 3.4 m/s 25.6 mm
23:00 10.2° 995.2 hPa 2.2 m/s 26.1 mm 10.2° 995.2 hPa 2.2 m/s 26.1 mm
 04:55     21:29    Daglengte: 16:34 Vrijdag 30 Jul
02:00 10.5° 994.5 hPa 3.8 m/s 26.2 mm 10.5° 994.5 hPa 3.8 m/s 26.2 mm
05:00 13.2° 992.3 hPa 6.2 m/s 32.4 mm 13.2° 992.3 hPa 6.2 m/s 32.4 mm
08:00 14.6° 992.6 hPa 5.6 m/s 32.5 mm 14.6° 992.6 hPa 5.6 m/s 32.5 mm
11:00 19.0° 992.7 hPa 5.5 m/s 32.6 mm 19.0° 992.7 hPa 5.5 m/s 32.6 mm
14:00 21.4° 993.1 hPa 5.5 m/s 32.8 mm 21.4° 993.1 hPa 5.5 m/s 32.8 mm
17:00 19.8° 994.2 hPa 5.4 m/s 33.3 mm 19.8° 994.2 hPa 5.4 m/s 33.3 mm
20:00 16.4° 995.6 hPa 4.7 m/s 33.8 mm 16.4° 995.6 hPa 4.7 m/s 33.8 mm
23:00 14.3° 997.0 hPa 4.1 m/s 33.8 mm 14.3° 997.0 hPa 4.1 m/s 33.8 mm
 04:57     21:26    Daglengte: 16:29 Zaterdag 31 Jul
02:00 14.1° 998.1 hPa 3.8 m/s 33.8 mm 14.1° 998.1 hPa 3.8 m/s 33.8 mm
05:00 12.6° 998.9 hPa 3.7 m/s 33.8 mm 12.6° 998.9 hPa 3.7 m/s 33.8 mm
08:00 15.3° 999.4 hPa 4.2 m/s 33.8 mm 15.3° 999.4 hPa 4.2 m/s 33.8 mm
11:00 19.3° 999.7 hPa 4.0 m/s 33.8 mm 19.3° 999.7 hPa 4.0 m/s 33.8 mm
14:00 21.0° 999.4 hPa 4.5 m/s 33.8 mm 21.0° 999.4 hPa 4.5 m/s 33.8 mm
17:00 21.6° 999.2 hPa 4.7 m/s 33.8 mm 21.6° 999.2 hPa 4.7 m/s 33.8 mm
20:00 18.2° 999.1 hPa 2.9 m/s 33.8 mm 18.2° 999.1 hPa 2.9 m/s 33.8 mm
23:00 12.6° 999.1 hPa 2.0 m/s 33.8 mm 12.6° 999.1 hPa 2.0 m/s 33.8 mm
 04:59     21:24    Daglengte: 16:25 Zondag 01 Aug
02:00 12.8° 998.0 hPa 1.1 m/s 34.3 mm 12.8° 998.0 hPa 1.1 m/s 34.3 mm
05:00 12.8° 997.3 hPa 1.0 m/s 36.5 mm 12.8° 997.3 hPa 1.0 m/s 36.5 mm
08:00 13.8° 997.2 hPa 2.7 m/s 36.7 mm 13.8° 997.2 hPa 2.7 m/s 36.7 mm
11:00 17.2° 997.6 hPa 4.3 m/s 36.8 mm 17.2° 997.6 hPa 4.3 m/s 36.8 mm
14:00 17.6° 997.9 hPa 3.9 m/s 36.8 mm 17.6° 997.9 hPa 3.9 m/s 36.8 mm
17:00 18.0° 998.2 hPa 5.2 m/s 37.3 mm 18.0° 998.2 hPa 5.2 m/s 37.3 mm
20:00 14.3° 998.6 hPa 4.0 m/s 37.8 mm 14.3° 998.6 hPa 4.0 m/s 37.8 mm
23:00 11.2° 998.6 hPa 3.3 m/s 37.9 mm 11.2° 998.6 hPa 3.3 m/s 37.9 mm
 05:01     21:22    Daglengte: 16:21 Maandag 02 Aug
02:00 12.3° 997.4 hPa 4.6 m/s 37.9 mm 12.3° 997.4 hPa 4.6 m/s 37.9 mm
05:00 12.8° 996.6 hPa 4.9 m/s 37.9 mm 12.8° 996.6 hPa 4.9 m/s 37.9 mm
08:00 14.3° 996.5 hPa 4.6 m/s 37.9 mm 14.3° 996.5 hPa 4.6 m/s 37.9 mm
11:00 15.8° 997.3 hPa 3.6 m/s 38.4 mm 15.8° 997.3 hPa 3.6 m/s 38.4 mm
14:00 17.5° 998.0 hPa 3.3 m/s 40.3 mm 17.5° 998.0 hPa 3.3 m/s 40.3 mm
20:00 13.5° 999.4 hPa 3.0 m/s 44.9 mm 13.5° 999.4 hPa 3.0 m/s 44.9 mm
 05:03     21:19    Daglengte: 16:16 Dinsdag 03 Aug
02:00 9.8° 1001.4 hPa 4.6 m/s 45.3 mm 9.8° 1001.4 hPa 4.6 m/s 45.3 mm
08:00 13.4° 1002.7 hPa 5.9 m/s 45.3 mm 13.4° 1002.7 hPa 5.9 m/s 45.3 mm
14:00 17.5° 1003.9 hPa 6.4 m/s 45.5 mm 17.5° 1003.9 hPa 6.4 m/s 45.5 mm
20:00 14.4° 1005.5 hPa 5.1 m/s 45.9 mm 14.4° 1005.5 hPa 5.1 m/s 45.9 mm
 05:06     21:17    Daglengte: 16:11 Woensdag 04 Aug
02:00 11.0° 1006.9 hPa 4.1 m/s 46.1 mm 11.0° 1006.9 hPa 4.1 m/s 46.1 mm
08:00 14.1° 1006.4 hPa 4.0 m/s 46.3 mm 14.1° 1006.4 hPa 4.0 m/s 46.3 mm
14:00 15.3° 1003.6 hPa 4.5 m/s 48.9 mm 15.3° 1003.6 hPa 4.5 m/s 48.9 mm
20:00 15.0° 1001.4 hPa 4.4 m/s 55.4 mm 15.0° 1001.4 hPa 4.4 m/s 55.4 mm
 05:08     21:15    Daglengte: 16:07 Donderdag 05 Aug
02:00 12.9° 999.5 hPa 4.2 m/s 55.8 mm 12.9° 999.5 hPa 4.2 m/s 55.8 mm
08:00 14.0° 997.2 hPa 4.6 m/s 55.8 mm 14.0° 997.2 hPa 4.6 m/s 55.8 mm
14:00 18.5° 1007.4 hPa 1.2 m/s 1.0 mm
20:00 15.5° 1006.8 hPa 0.9 m/s 2.0 mm
 05:10     21:12    Daglengte: 16:02 Vrijdag 06 Aug
02:00 12.3° 1007.0 hPa 1.1 m/s 1.7 mm
08:00 14.0° 1006.5 hPa 0.9 m/s 0.8 mm
14:00 18.8° 1005.8 hPa 1.1 m/s 0.9 mm
20:00 15.8° 1005.2 hPa 1.2 m/s 2.0 mm
 05:12     21:10    Daglengte: 15:58 Zaterdag 07 Aug
02:00 12.0° 1006.0 hPa 1.6 m/s 0.5 mm
08:00 13.8° 1006.1 hPa 1.7 m/s 0.4 mm
14:00 18.9° 1005.9 hPa 2.2 m/s 0.5 mm
20:00 16.0° 1005.8 hPa 2.0 m/s 1.2 mm
 05:14     21:07    Daglengte: 15:53 Zondag 08 Aug
02:00 12.1° 1006.8 hPa 2.4 m/s 0.2 mm